Wind_Speed
11 11 12 12 12 12 13 13 14 14 14 15 16 16 17 17 18 18 19 19 20 20 20 20 20 20 20 20 20 20 20 20 20 20 20 19 19 18 18 19 19 20 20 20 20 20 20 20 20 20 21 21 22 22 23 25 26 25 25 25 27 29 28 26 23 20 20 23 25 27 29 29 30 31
11 11 11 11 11 11 12 12 12 12 13 13 14 14 15 15 16 16 17 17 17 18 18 18 18 19 19 19 19 19 19 20 20 20 19 19 19 20 20 20 20 19 19 19 19 20 20 20 20 20 20 20 21 22 23 25 26 26 25 25 26 29 29 27 24 21 21 23 25 27 28 28 29 30
11 11 11 11 11 11 12 12 12 12 13 13 13 14 14 15 15 15 15 16 16 16 16 17 17 17 17 17 17 18 18 19 19 19 19 19 19 20 20 21 20 20 19 19 19 19 19 19 19 20 20 20 21 22 22 23 25 26 26 25 25 28 30 29 26 23 22 23 24 26 27 28 28 29
11 11 11 11 12 12 12 13 13 13 13 14 14 14 15 15 15 15 15 15 15 15 15 15 16 16 16 16 16 17 17 17 18 18 18 18 19 21 21 20 20 20 19 19 19 19 19 19 19 20 20 20 20 21 21 22 23 25 26 26 25 26 28 29 27 24 23 24 24 26 27 26 26 27
12 12 12 12 12 12 12 13 13 14 14 14 14 15 15 15 15 16 15 15 15 15 15 15 15 15 16 16 16 17 17 17 18 18 18 19 20 21 21 21 20 20 19 19 18 18 19 19 20 20 20 20 20 20 20 20 22 24 25 26 25 25 26 28 28 26 25 25 25 26 26 25 24 26
13 12 12 12 12 12 12 12 13 13 14 14 14 15 15 15 15 15 16 16 15 15 15 14 14 15 15 16 16 16 17 17 18 19 19 21 21 21 21 21 21 20 19 19 18 18 18 19 20 20 20 20 20 19 19 19 20 22 24 25 25 24 25 26 27 27 26 25 25 26 27 25 24 25
13 13 13 12 12 12 12 12 12 13 13 14 14 15 15 15 15 16 16 16 16 16 15 15 15 15 15 15 15 16 16 17 18 20 21 22 22 22 22 21 21 21 20 19 19 18 19 19 20 20 21 21 20 20 19 19 19 21 23 25 25 24 24 24 26 26 25 25 25 26 26 25 25 27
14 13 13 13 13 12 12 12 12 13 13 13 14 14 15 15 15 16 16 16 16 16 16 16 15 15 15 15 15 15 16 17 18 20 21 21 21 22 22 22 22 21 21 20 20 20 20 20 21 21 21 21 21 21 20 19 19 20 22 24 25 24 23 23 24 25 24 24 25 26 25 25 26 28
13 13 13 13 13 13 13 13 13 13 13 13 14 14 14 15 15 15 16 16 16 16 16 16 16 16 16 16 16 16 17 17 18 19 20 21 21 22 22 22 21 20 20 20 20 20 21 21 22 23 23 22 21 21 21 20 20 20 21 23 24 24 23 22 23 23 23 23 24 25 24 25 26 29
13 13 13 14 14 14 14 15 15 14 14 14 14 14 15 15 15 15 16 16 16 16 16 16 16 16 17 17 17 17 18 18 19 20 20 21 21 22 22 21 20 19 19 19 19 19 21 22 23 23 23 23 22 21 21 21 20 19 20 22 23 23 23 22 21 21 22 22 23 23 23 24 26 28
13 14 14 14 14 15 15 15 16 16 16 16 15 15 16 16 16 16 16 16 16 16 16 16 17 17 17 18 18 19 19 19 19 20 20 21 22 22 22 21 19 18 17 17 17 18 20 22 23 23 23 23 22 21 21 21 20 19 20 21 22 22 22 21 20 20 20 20 21 22 22 23 26 28
14 14 14 15 15 15 15 15 16 16 17 17 17 17 17 17 17 17 17 17 16 16 17 17 18 19 19 19 20 20 20 19 19 20 21 23 23 22 22 21 19 17 16 16 16 18 21 23 23 23 23 22 22 21 21 21 21 20 20 21 21 22 21 20 19 19 20 19 20 21 22 23 26 28
13 14 14 15 15 15 15 15 15 16 17 17 18 18 18 18 18 18 18 17 17 17 18 19 20 20 21 21 21 20 20 20 20 20 22 24 25 24 22 20 18 16 15 15 16 18 21 23 23 23 23 22 22 22 21 21 21 21 20 21 21 21 19 17 17 18 20 20 20 21 22 24 26 29
13 13 14 14 15 15 15 15 16 16 17 17 18 18 18 19 19 19 19 19 19 19 20 21 22 22 21 21 21 20 20 20 20 21 23 25 25 25 22 20 17 15 14 14 15 17 21 24 24 24 24 24 23 22 21 21 21 21 21 21 21 20 18 15 16 19 21 22 21 21 23 24 27 29
12 12 13 14 15 15 15 16 16 17 17 17 18 18 18 19 19 20 20 21 21 22 23 24 24 23 22 21 20 20 19 20 21 22 23 24 24 23 22 20 18 15 14 14 16 18 21 25 26 25 25 25 24 23 22 21 21 21 21 20 20 19 17 15 16 20 23 23 23 22 23 25 27 29
11 12 13 14 15 15 16 17 17 18 18 18 18 18 18 18 19 19 20 21 22 23 24 25 25 25 23 22 21 20 21 22 22 22 22 22 22 22 22 20 18 15 14 15 17 19 22 25 27 26 26 26 26 24 22 21 21 21 20 19 19 18 17 16 18 22 24 24 23 23 24 26 27 29
10 11 13 14 15 16 17 18 18 19 19 19 18 17 17 18 18 19 19 21 23 24 24 24 25 25 25 24 24 24 24 24 24 24 23 22 21 21 21 20 18 16 14 15 17 20 23 26 26 26 25 26 26 25 22 21 21 20 18 18 18 18 18 18 21 23 24 23 23 24 26 27 29 31
9 10 11 13 15 16 17 18 19 20 20 20 20 18 18 18 19 19 19 20 23 24 25 24 24 24 25 25 25 26 25 24 24 24 24 23 22 20 20 20 19 17 17 18 20 22 24 26 25 24 24 24 25 25 21 19 20 19 17 17 18 18 19 21 23 24 24 23 23 25 26 28 30 32
8 9 11 12 14 16 17 18 19 20 21 22 22 21 20 21 21 20 20 21 23 24 24 24 23 23 24 24 24 25 25 23 23 23 24 24 23 21 21 21 21 21 21 22 23 23 24 24 23 22 21 21 23 24 20 17 18 18 17 17 19 21 22 23 24 25 24 23 24 25 26 28 30 32
9 9 10 12 13 15 17 18 19 21 22 23 23 23 23 24 24 23 22 23 24 24 23 23 22 22 23 23 23 24 24 23 22 22 22 23 23 22 21 22 23 23 23 23 24 23 23 22 21 20 20 19 21 22 20 17 17 17 17 19 23 25 26 26 27 27 26 25 25 25 26 28 30 32
10 10 11 12 13 14 16 17 19 21 22 23 24 25 25 26 26 24 24 25 25 24 23 22 22 21 22 23 23 23 23 23 22 21 21 22 22 22 22 22 23 23 24 24 24 24 22 20 19 19 19 19 19 20 20 19 17 17 17 21 26 29 28 28 28 28 28 28 25 24 26 28 30 30
11 11 12 12 13 15 16 17 19 21 22 23 23 24 26 27 26 25 25 26 25 23 22 22 22 21 21 22 22 23 23 24 23 22 21 21 22 22 22 23 23 23 23 23 23 23 23 21 20 19 20 19 19 19 20 20 19 19 21 25 28 30 29 29 29 30 30 28 25 24 26 28 29 29
11 12 12 13 15 15 16 17 18 21 23 23 23 24 25 27 27 27 27 26 25 23 22 22 22 22 21 22 22 23 23 24 24 23 22 21 22 22 22 23 23 22 22 22 23 24 23 22 21 20 21 21 20 20 21 21 22 23 26 28 30 30 29 29 30 31 31 28 25 24 27 29 29 29
12 12 12 14 15 16 17 18 19 21 23 23 23 24 25 27 28 29 29 28 25 23 23 22 22 21 21 22 23 23 23 25 25 24 23 23 23 23 23 23 23 22 22 22 23 23 24 24 23 22 22 22 22 22 23 23 24 26 28 29 30 29 29 28 30 31 30 27 25 26 28 30 30 29
13 13 13 14 15 16 17 19 20 22 23 24 24 24 25 27 29 30 30 29 26 25 24 23 23 22 21 22 23 23 24 25 25 25 24 24 24 23 23 22 22 21 20 21 22 23 23 24 24 24 24 24 24 24 25 25 26 27 28 29 29 29 28 29 30 30 28 26 26 28 30 31 30 30
12 13 13 14 15 16 18 20 21 22 23 24 25 25 25 27 28 29 29 29 27 26 26 25 24 23 22 22 23 24 25 26 26 25 25 25 24 23 22 21 20 20 20 20 21 23 24 25 26 26 26 26 26 27 27 27 27 27 28 28 28 28 28 29 29 28 26 27 28 30 31 31 30 31
13 13 14 15 16 16 18 21 22 23 24 24 25 26 26 26 28 29 29 28 28 28 27 27 26 24 24 24 25 25 25 26 26 26 26 25 24 22 20 19 18 18 19 20 21 23 26 28 28 28 28 28 30 30 29 28 27 27 26 27 26 27 28 28 28 26 26 28 30 31 30 29 29 30
16 16 16 16 17 17 19 21 23 24 24 25 26 27 26 27 28 29 30 30 29 29 28 28 27 26 25 26 27 26 25 25 26 27 26 25 23 21 19 16 16 17 18 19 21 24 28 31 31 31 31 31 32 31 30 29 28 28 27 26 26 26 26 26 26 26 27 29 30 30 28 27 27 29
19 18 18 18 19 20 21 22 24 25 25 25 26 27 27 27 28 30 31 31 31 31 30 29 28 27 27 28 29 28 26 25 25 25 25 23 22 20 17 13 13 15 18 19 21 25 29 33 35 35 34 33 32 31 30 30 30 29 29 28 27 26 26 25 26 27 28 29 29 28 26 26 28 31
21 21 21 21 23 24 25 25 25 25 26 26 27 27 27 27 29 30 31 32 32 32 30 28 27 28 28 29 30 29 27 25 23 22 21 21 20 18 13 11 12 15 18 20 23 26 29 34 37 38 36 34 33 32 32 32 31 30 30 30 28 27 26 26 26 27 27 27 27 28 28 30 32 35
22 22 23 25 27 29 29 28 27 27 26 26 26 27 27 28 29 30 31 31 30 30 29 28 28 28 28 30 31 29 27 25 23 21 19 17 17 15 12 10 12 16 19 22 25 28 31 34 38 40 40 38 36 35 36 35 33 31 30 30 29 27 27 27 29 29 29 29 30 31 33 35 37 40
22 23 24 27 29 30 30 29 29 28 27 26 25 26 27 28 29 30 31 30 28 29 30 30 30 29 29 31 31 29 28 26 24 23 19 15 16 17 13 11 14 18 21 26 29 32 35 37 39 42 43 42 40 39 39 39 38 35 33 32 31 30 29 30 31 32 33 34 36 37 39 40 41 43
23 23 24 25 25 25 25 27 27 27 26 25 24 24 25 27 29 31 31 29 28 29 30 29 28 28 29 31 31 30 30 28 27 26 23 19 21 24 22 18 19 21 24 30 34 36 39 40 40 42 44 45 44 43 42 43 43 41 39 37 35 34 33 33 34 35 36 38 40 42 43 43 44 45
24 23 22 22 21 20 21 22 23 24 24 24 23 23 24 27 30 31 31 28 27 29 29 27 26 25 27 29 30 30 30 30 30 31 28 27 32 35 31 28 26 24 25 31 36 39 42 43 42 42 43 44 45 45 45 45 45 45 44 42 40 38 37 36 36 37 38 40 41 43 44 45 46 46
26 26 25 23 22 20 20 20 21 21 21 21 22 22 23 27 30 31 31 28 27 28 27 26 26 25 25 26 28 28 28 29 30 31 30 31 34 34 29 27 27 23 23 29 36 40 44 45 44 43 43 43 44 45 45 46 46 47 47 46 45 43 41 39 39 39 40 41 43 44 45 47 48 48
28 30 30 29 26 24 23 24 23 23 23 23 23 23 24 27 29 30 31 30 28 27 26 25 27 27 25 26 28 29 28 27 27 27 27 26 26 26 25 26 27 24 23 30 37 41 45 47 46 45 44 43 43 44 45 46 46 47 48 48 48 47 46 44 42 42 42 44 45 46 47 48 49 49
31 33 34 34 31 28 27 27 26 26 27 27 28 27 28 30 30 31 33 33 32 29 25 24 25 26 26 27 29 31 31 29 27 26 26 25 25 25 27 30 31 28 28 34 42 45 47 49 49 47 46 46 44 44 45 45 45 47 48 49 49 49 49 48 48 47 47 47 48 49 49 50 52 52
36 38 38 37 35 33 31 29 28 29 29 30 31 31 33 34 35 35 37 38 36 32 29 27 27 26 26 28 30 31 32 33 32 32 30 27 28 29 30 32 33 31 31 37 45 48 50 52 51 48 48 48 47 45 45 46 46 47 49 50 50 50 50 50 51 51 52 53 53 54 54 54 55 55
40 41 41 40 39 36 33 30 30 31 32 32 33 33 35 37 37 37 40 42 40 36 34 35 34 32 31 32 34 34 34 34 36 37 35 32 31 32 34 35 35 33 33 36 41 47 51 53 51 48 49 50 49 47 46 46 46 48 51 52 52 52 51 52 52 53 54 55 56 57 57 58 58 58
41 42 42 42 41 38 36 34 34 33 34 35 36 35 35 37 38 38 40 42 41 39 37 36 36 35 34 36 37 38 38 38 38 38 37 35 34 35 37 38 38 37 37 39 43 50 54 52 49 47 49 51 51 49 47 46 48 51 53 54 55 55 55 54 54 54 55 56 57 58 59 59 59 59
41 42 43 43 43 41 40 40 39 36 35 37 38 36 35 36 38 39 39 39 39 39 37 35 34 34 35 37 39 42 44 46 46 45 42 40 38 39 40 41 41 41 43 46 50 52 50 48 48 50 51 52 52 51 49 48 50 54 56 57 58 58 58 57 58 58 58 58 59 60 60 60 60 60
40 40 42 42 43 45 46 46 44 40 38 39 40 38 36 37 38 39 39 39 39 39 36 34 35 37 38 39 41 44 47 50 51 49 47 44 41 39 40 42 44 46 48 48 47 45 45 47 51 52 51 51 53 54 52 50 52 56 59 59 60 60 61 62 62 63 62 63 63 63 63 63 63 64
42 42 42 41 43 47 50 49 47 44 42 41 40 39 37 37 38 40 39 40 42 42 38 35 36 39 41 43 43 43 45 49 52 50 47 42 39 39 41 43 44 46 46 44 41 43 48 52 53 53 52 52 54 55 54 53 53 57 60 62 62 63 65 65 66 66 67 68 68 68 67 67 67 67
46 46 45 42 42 44 45 44 44 44 42 41 40 39 39 40 42 42 40 41 43 43 40 38 41 43 43 42 41 40 40 44 49 49 44 40 41 43 43 42 42 43 44 44 45 50 54 56 56 56 53 52 54 57 56 54 54 58 63 65 66 66 67 68 69 70 72 73 73 72 72 72 72 71
49 49 48 46 44 41 38 38 41 42 41 41 42 42 42 44 46 46 44 43 43 42 41 42 43 43 40 37 36 38 39 42 46 47 44 45 48 48 45 45 48 50 51 52 53 55 56 57 58 56 53 53 57 59 57 55 57 61 66 69 70 70 70 72 73 74 76 77 78 77 77 76 76 75
Wind_Direction
12 14 16 20 24 27 29 32 35 35 34 35 36 35 34 34 34 35 35 36 36 35 34 32 31 31 31 29 28 27 27 25 24 23 20 16 14 15 18 20 18 15 12 8 5 4 3 2 2 2 3 4 8 12 16 18 17 15 12 12 17 21 22 22 23 24 25 26 25 22 22 22 22 23
0 1 2 4 8 11 13 16 18 19 20 23 25 24 23 24 25 26 28 29 29 29 29 28 27 26 26 25 23 22 21 20 19 17 15 10 8 9 12 13 12 10 8 4 0 358 358 357 357 356 357 0 5 10 13 16 16 14 11 10 13 18 20 23 24 24 23 24 23 18 16 17 18 19
358 355 355 355 356 358 359 1 2 3 5 9 12 12 12 12 14 15 17 19 21 22 23 23 23 22 21 20 18 17 17 16 14 12 9 4 4 7 9 8 5 3 1 358 356 353 352 353 353 352 352 355 0 5 8 11 12 13 11 9 10 14 17 19 21 21 20 21 20 15 12 11 11 13
356 355 354 354 354 353 353 352 352 352 355 359 2 2 1 1 2 4 7 9 12 14 16 16 17 17 17 15 14 13 13 12 10 9 5 1 1 5 6 3 360 357 354 352 349 347 347 349 350 350 350 352 354 358 3 6 8 10 10 8 8 10 13 15 15 13 13 16 16 11 8 7 6 7
351 353 354 354 354 354 352 351 350 350 351 353 356 356 356 355 355 357 359 1 4 7 9 10 11 11 11 10 9 8 8 6 5 4 1 359 0 2 0 358 355 353 350 348 345 344 344 345 346 347 348 350 351 353 356 359 2 6 8 7 7 8 10 11 9 6 7 11 10 7 6 4 1 3
345 348 351 352 353 353 352 351 350 350 350 352 353 354 353 353 353 354 355 357 359 1 2 3 4 5 5 5 4 3 2 0 359 358 356 356 358 357 355 353 351 350 349 347 346 347 347 344 343 344 345 348 350 350 350 351 356 1 4 6 6 7 8 7 5 2 3 6 6 4 3 0 359 2
340 343 346 348 350 350 350 349 348 348 349 350 350 350 350 350 350 351 352 353 353 354 355 355 356 357 357 357 357 356 356 354 353 353 353 353 353 351 349 348 348 348 348 348 350 353 352 348 344 343 344 347 348 347 346 346 350 355 360 3 6 6 5 4 2 1 1 3 3 3 1 358 358 2
336 339 341 342 344 345 345 345 345 345 345 345 346 346 345 345 345 346 347 347 348 348 348 348 347 347 348 348 349 349 349 349 349 349 349 350 348 346 345 345 346 347 347 348 352 356 356 351 347 347 346 346 346 345 343 343 346 350 354 359 3 4 2 1 360 360 359 0 2 2 359 358 360 2
332 333 335 336 337 338 340 340 341 341 341 341 341 340 339 340 340 341 342 342 342 342 341 340 338 338 338 339 341 342 344 345 346 346 347 347 345 344 344 344 345 346 347 348 354 359 358 354 351 350 348 346 344 342 340 340 342 344 348 354 359 0 359 357 358 358 358 360 1 359 357 358 0 2
324 325 326 327 329 331 333 335 336 337 336 336 335 335 334 335 336 337 337 337 336 335 333 332 331 331 332 333 335 337 339 341 342 343 343 345 345 345 345 346 345 346 347 349 355 0 0 357 354 352 349 345 342 339 336 337 339 340 342 349 354 356 355 354 355 356 357 358 358 355 355 357 359 1
317 319 320 321 322 324 326 328 330 330 330 330 330 331 332 333 334 334 333 332 331 329 328 326 326 326 328 330 331 332 334 336 337 338 339 342 345 346 346 346 346 347 350 351 354 0 1 359 357 355 351 345 340 336 334 335 337 338 339 343 347 349 350 351 352 354 355 353 351 351 353 354 356 359
315 316 318 320 320 321 322 322 322 322 322 322 323 325 327 329 331 332 332 331 329 327 326 325 324 326 328 330 331 331 331 331 332 333 335 338 343 347 348 347 344 344 348 348 348 356 359 358 358 357 354 348 341 336 334 335 336 336 336 337 339 342 345 348 349 351 351 348 346 348 350 351 353 356
316 319 322 323 324 325 324 323 321 319 318 318 319 320 320 321 323 324 326 327 327 326 324 323 323 325 329 331 333 332 331 330 330 333 335 336 340 344 348 348 344 339 341 342 341 349 355 355 355 355 352 348 343 338 336 335 335 334 333 332 333 335 339 343 345 347 347 346 344 345 347 349 350 352
319 324 326 328 330 331 331 330 328 325 324 323 322 321 320 319 317 317 317 318 318 318 317 317 317 321 326 331 333 333 333 332 333 336 338 338 338 340 343 345 343 336 334 335 335 341 349 350 350 350 349 347 343 338 334 334 333 332 331 330 330 332 334 338 341 343 345 344 343 343 345 347 348 349
321 327 330 332 335 336 337 337 335 333 331 329 327 326 324 322 319 318 316 314 311 310 310 311 314 318 324 328 331 333 333 333 334 337 339 340 340 340 339 340 340 334 330 330 331 336 344 345 345 346 346 344 341 335 331 330 330 330 330 330 331 332 333 335 337 341 343 342 342 342 344 345 346 348
321 328 332 335 337 338 339 341 341 338 335 333 331 330 327 324 322 320 319 315 311 309 309 310 314 317 320 322 325 326 327 327 329 332 335 337 339 339 337 335 335 333 330 330 331 334 338 339 339 341 343 342 339 334 327 325 327 329 331 333 334 334 334 333 335 340 342 341 341 342 343 344 346 349
321 328 333 336 339 340 342 344 343 340 337 335 333 332 328 324 321 320 319 315 312 310 311 314 316 317 318 318 318 318 319 321 322 325 326 327 329 332 332 331 333 333 331 329 331 332 333 332 333 336 339 339 338 334 326 321 322 326 330 333 335 334 333 332 333 337 340 341 341 341 342 344 347 350
323 329 333 336 338 340 343 344 342 340 339 338 336 333 327 322 320 319 317 313 310 311 316 320 322 319 319 319 317 316 318 320 321 321 321 320 321 323 323 323 324 324 322 321 323 325 326 327 329 332 334 335 336 334 326 317 316 320 325 330 333 334 333 331 331 334 337 339 339 340 341 344 348 350
326 329 332 335 336 338 341 341 341 340 340 341 340 335 330 326 323 321 317 311 309 314 319 323 324 321 319 319 318 317 319 320 321 320 318 317 319 320 317 314 313 312 313 314 317 321 324 326 327 329 329 330 333 333 325 312 311 315 321 328 333 334 333 332 331 332 334 336 338 340 342 345 348 349
326 325 328 332 333 334 337 337 338 338 339 343 343 339 335 332 329 326 319 312 314 319 322 323 323 321 318 318 318 317 318 318 318 318 317 317 319 319 316 312 310 313 316 318 321 324 328 330 328 327 326 325 328 329 324 311 304 308 317 326 332 333 332 332 332 332 334 335 338 341 343 346 347 348
322 321 324 327 328 330 332 333 333 333 336 342 344 341 338 336 334 330 320 315 319 324 323 321 320 319 317 316 316 316 315 315 316 316 317 318 318 317 315 314 315 320 323 325 326 329 333 334 330 326 326 324 322 323 322 315 305 303 310 320 327 329 329 330 332 332 334 336 339 342 344 346 347 347
316 319 322 323 323 326 327 327 328 328 331 339 343 341 338 336 335 329 320 318 322 324 321 319 317 316 315 314 313 313 313 313 314 317 319 319 317 316 316 318 323 329 332 332 333 335 336 336 331 327 326 325 321 318 320 319 312 306 307 312 319 324 326 328 330 332 333 335 338 342 345 345 345 344
311 317 321 319 319 322 323 322 323 324 328 334 339 339 336 335 334 329 323 321 323 321 319 317 315 315 314 311 310 311 311 311 313 317 319 318 316 316 319 322 328 335 340 341 342 343 342 340 337 331 327 326 323 319 318 318 315 310 308 311 315 320 323 325 328 331 333 334 338 342 343 343 342 342
307 316 319 315 314 317 319 318 319 321 325 330 333 334 333 332 333 330 326 324 322 319 316 315 314 314 313 309 307 309 309 309 312 316 318 317 317 319 322 326 332 339 345 348 350 350 349 348 347 344 339 334 331 326 322 319 316 313 312 313 315 317 320 323 328 330 331 333 337 340 340 339 339 341
305 313 315 312 312 314 314 314 316 319 322 325 328 329 329 330 331 331 328 325 321 317 314 313 312 313 311 308 307 308 308 309 312 315 316 316 318 321 324 329 335 342 348 352 356 356 355 355 355 354 351 347 343 338 332 328 324 321 319 318 318 318 320 324 328 330 331 334 337 337 336 336 337 340
304 307 307 306 308 310 309 310 312 315 318 320 323 325 325 327 328 328 326 323 319 315 313 311 311 311 310 307 306 306 308 310 312 313 315 316 317 320 324 329 336 344 351 356 0 1 360 358 357 355 354 354 351 347 342 337 334 331 328 325 323 322 323 326 329 330 332 335 336 335 334 334 335 339
298 300 300 301 303 303 302 304 307 309 313 316 319 320 321 322 323 322 322 321 317 313 311 310 309 309 309 307 306 306 308 310 310 311 313 315 315 317 322 329 336 346 355 360 3 3 2 359 357 356 355 354 352 349 345 342 340 338 335 332 329 327 326 328 330 331 332 334 335 335 334 334 336 339
294 297 300 302 302 299 297 298 302 304 308 313 314 315 317 318 317 317 318 318 315 311 309 308 308 308 307 305 304 306 308 309 310 311 313 313 311 312 318 328 340 350 357 1 3 5 5 3 0 357 355 353 351 351 349 346 344 343 340 337 334 333 332 333 333 333 334 334 334 334 334 335 337 339
297 299 301 302 301 296 292 293 297 301 305 309 309 311 313 313 312 313 314 315 315 312 310 309 307 305 304 302 302 304 305 306 307 311 312 310 307 308 313 325 344 355 0 3 6 7 8 7 3 359 356 354 353 353 352 350 349 348 346 344 342 341 341 340 340 339 337 336 334 334 335 336 337 337
304 304 302 299 296 291 289 292 295 298 302 304 305 307 309 308 308 310 311 312 315 317 316 311 306 302 300 298 298 300 301 303 306 308 308 307 304 303 308 325 347 358 2 4 5 6 7 7 4 0 356 353 354 354 353 352 350 350 350 350 348 347 346 346 345 344 342 339 336 335 335 336 336 337
310 309 303 297 293 292 292 293 295 296 297 299 301 304 305 304 305 305 305 308 315 321 322 316 307 302 298 295 295 297 298 301 303 303 302 306 310 307 304 322 344 357 3 3 1 1 2 2 2 359 355 350 348 348 349 349 348 347 347 348 348 346 344 343 343 342 341 339 337 335 335 335 336 336
312 309 303 298 296 296 296 295 295 295 296 298 299 301 302 301 301 300 301 304 312 320 321 315 309 306 302 298 298 299 300 302 306 304 296 298 313 316 311 321 340 353 0 360 358 357 356 357 357 356 353 349 345 341 341 343 344 343 341 340 340 340 339 338 338 337 337 336 334 333 332 332 332 332
310 305 303 303 303 302 302 301 299 299 299 299 298 297 297 296 295 296 299 304 310 315 314 309 307 308 307 304 303 304 304 306 309 307 296 286 296 304 302 311 330 345 354 355 353 352 351 351 352 352 350 348 345 340 337 337 338 339 338 336 334 333 332 332 333 332 332 332 330 329 329 328 328 328
302 296 295 300 305 308 310 309 307 307 306 304 300 295 293 291 292 295 298 302 306 310 308 303 302 305 306 305 303 302 302 302 304 305 298 286 285 287 286 292 305 321 335 340 341 344 346 346 346 347 347 347 345 341 337 335 334 334 334 334 332 330 329 328 327 326 326 326 326 326 326 325 324 323
291 286 286 291 296 301 307 310 311 311 312 310 307 301 295 292 293 296 298 297 298 301 303 301 300 300 302 303 301 298 296 295 296 298 296 288 282 281 281 285 291 296 308 318 324 331 338 341 341 340 341 343 343 342 338 335 332 331 331 331 330 328 326 324 323 321 320 320 321 323 323 322 320 319
281 280 284 288 289 291 297 304 309 308 306 305 307 306 300 296 296 297 295 290 287 290 297 302 299 295 296 301 303 301 299 295 289 287 286 283 279 280 288 295 293 287 290 301 310 319 328 333 335 334 334 336 338 339 337 335 333 331 330 330 328 326 324 321 318 317 316 316 317 318 319 319 318 317
273 276 281 286 288 289 291 296 302 303 301 300 303 304 301 298 297 295 291 287 282 279 287 299 301 296 295 301 304 304 302 300 296 290 283 276 273 277 286 294 296 290 287 294 303 310 318 325 328 328 328 329 331 332 333 332 332 333 332 330 328 327 325 321 318 315 314 314 314 315 316 317 318 317
273 278 283 286 290 291 289 290 294 295 295 298 301 301 300 298 296 291 287 286 285 281 279 284 291 294 298 304 307 305 302 301 303 304 298 286 278 278 284 292 294 288 284 292 300 304 310 318 321 322 323 324 324 325 327 328 329 331 333 332 330 328 325 322 320 318 316 315 314 314 315 315 316 317
279 283 286 289 291 291 290 292 294 291 290 294 297 297 296 296 295 291 286 286 290 290 282 277 279 285 291 298 304 306 303 300 300 303 303 297 289 285 288 292 293 289 287 292 296 298 303 312 316 316 317 319 318 318 320 323 326 328 329 330 330 329 327 324 322 321 319 318 316 315 315 314 314 315
280 283 286 288 288 286 286 292 296 293 289 290 293 293 293 294 294 293 289 287 290 292 288 282 281 282 285 289 295 300 303 301 298 295 296 297 294 291 291 292 291 288 285 285 287 291 299 306 309 308 310 313 313 313 314 317 322 325 325 326 327 328 328 326 324 323 321 320 318 317 316 315 314 313
279 280 281 282 282 282 283 288 291 290 288 289 291 292 292 293 293 292 290 290 291 291 290 289 287 286 286 285 286 290 294 297 296 293 290 290 289 290 292 294 292 288 285 285 289 293 296 299 301 302 304 308 310 310 308 311 317 322 323 323 324 324 324 324 323 323 322 321 321 319 317 316 314 313
278 279 279 279 279 278 278 282 285 286 289 291 292 292 291 291 290 289 289 291 293 292 290 289 288 287 285 283 282 284 289 293 294 293 289 287 287 288 291 293 292 289 288 291 293 292 289 291 296 298 300 304 308 308 305 305 312 319 321 322 322 322 321 321 321 320 320 320 321 320 318 315 313 312
277 278 279 280 277 273 273 278 282 286 290 292 291 291 292 291 291 290 290 289 290 290 289 288 288 287 283 280 282 287 291 291 290 288 285 286 290 293 295 294 292 290 288 288 286 281 281 288 294 294 295 301 306 305 302 302 307 314 319 321 322 322 322 320 319 318 319 320 321 320 319 317 315 313
273 275 276 278 276 273 273 276 279 283 287 290 290 291 292 291 290 291 290 289 289 288 287 288 291 290 286 282 284 289 291 288 283 281 282 288 295 298 297 292 286 281 277 275 275 275 279 286 290 291 293 298 302 302 301 301 304 311 317 320 320 321 321 320 319 318 319 320 321 321 320 319 317 316
271 272 273 274 275 275 275 276 277 280 283 288 291 292 291 289 288 289 290 291 291 288 286 288 291 290 285 283 284 286 286 282 278 277 282 290 294 294 288 279 273 272 271 272 274 276 280 285 289 289 290 295 299 300 300 299 302 309 316 318 319 320 320 320 320 320 320 320 321 321 320 319 318 317
Height
11020 11019 11018 11018 11018 11017 11016 11016 11014 11014 11014 11014 11012 11012 11012 11011 11010 11009 11008 11007 11006 11006 11004 11003 11002 11001 11000 10999 10998 10997 10996 10996 10994 10994 10992 10992 10990 10989 10988 10986 10984 10983 10982 10980 10980 10978 10977 10976 10974 10973 10972 10970 10968 10966 10964 10962 10960 10958 10956 10954 10952 10950 10948 10946 10944 10942 10940 10938 10936 10935 10934 10932 10930 10928
11020 11020 11019 11018 11018 11017 11016 11016 11015 11015 11014 11014 11013 11012 11012 11012 11011 11010 11009 11008 11007 11006 11005 11004 11003 11002 11000 11000 10998 10998 10996 10996 10994 10994 10993 10992 10990 10989 10987 10985 10984 10983 10982 10980 10980 10978 10977 10976 10974 10973 10972 10970 10968 10966 10964 10962 10960 10958 10956 10955 10953 10951 10949 10947 10945 10943 10941 10938 10937 10936 10934 10932 10930 10928
11020 11020 11019 11018 11018 11017 11016 11016 11016 11015 11014 11014 11013 11012 11012 11012 11011 11010 11010 11009 11008 11007 11006 11004 11004 11002 11001 11000 11000 10998 10997 10996 10995 10994 10993 10992 10990 10988 10986 10985 10984 10982 10982 10980 10979 10978 10977 10976 10974 10972 10971 10970 10968 10966 10964 10962 10960 10958 10957 10955 10953 10951 10949 10947 10946 10944 10942 10940 10938 10936 10935 10934 10931 10929
11021 11020 11020 11018 11018 11017 11016 11016 11015 11015 11014 11014 11012 11012 11012 11012 11011 11010 11010 11009 11008 11007 11006 11005 11004 11003 11002 11000 11000 10998 10997 10996 10996 10994 10993 10992 10990 10988 10986 10984 10984 10982 10980 10980 10978 10978 10976 10975 10974 10972 10970 10969 10968 10966 10964 10963 10961 10959 10957 10955 10953 10951 10949 10948 10946 10944 10942 10940 10938 10938 10936 10934 10932 10930
11021 11020 11020 11019 11018 11017 11016 11016 11015 11014 11014 11013 11012 11012 11012 11011 11011 11010 11010 11008 11008 11007 11006 11005 11004 11002 11002 11000 10999 10998 10997 10996 10995 10994 10993 10992 10989 10987 10985 10984 10982 10982 10980 10978 10978 10976 10976 10974 10972 10971 10970 10968 10968 10966 10964 10962 10961 10960 10958 10956 10953 10951 10949 10948 10946 10944 10942 10940 10939 10938 10937 10935 10933 10930
11020 11020 11020 11019 11018 11018 11017 11016 11016 11014 11014 11012 11012 11012 11012 11011 11010 11010 11009 11008 11008 11006 11006 11004 11004 11002 11001 11000 10998 10998 10996 10996 10994 10994 10992 10990 10988 10986 10985 10984 10982 10980 10979 10978 10976 10976 10974 10973 10972 10970 10969 10968 10966 10965 10964 10962 10961 10960 10958 10956 10954 10952 10950 10948 10946 10944 10942 10940 10939 10938 10937 10936 10933 10930
11020 11020 11020 11019 11018 11018 11017 11016 11016 11014 11014 11013 11012 11012 11011 11011 11010 11010 11008 11008 11007 11006 11005 11004 11002 11002 11000 10999 10998 10997 10996 10995 10994 10992 10991 10989 10987 10986 10984 10983 10982 10980 10978 10977 10976 10975 10974 10972 10971 10970 10969 10968 10966 10964 10962 10962 10960 10959 10958 10956 10954 10952 10950 10948 10946 10944 10942 10941 10940 10938 10937 10936 10933 10930
11020 11020 11018 11018 11018 11017 11016 11016 11016 11014 11014 11013 11012 11012 11011 11010 11010 11009 11008 11007 11006 11005 11004 11002 11002 11000 11000 10998 10998 10996 10996 10994 10993 10992 10990 10988 10986 10985 10984 10982 10981 10980 10978 10976 10976 10974 10973 10972 10971 10970 10968 10966 10965 10963 10962 10960 10960 10958 10958 10956 10954 10952 10950 10948 10947 10944 10943 10941 10940 10938 10938 10936 10933 10930
11020 11018 11018 11018 11017 11016 11016 11015 11014 11014 11013 11012 11012 11012 11010 11010 11010 11008 11008 11006 11005 11004 11002 11002 11000 10999 10998 10997 10996 10996 10994 10994 10992 10991 10990 10988 10986 10985 10984 10982 10980 10979 10978 10976 10975 10974 10973 10972 10970 10969 10968 10966 10964 10962 10960 10960 10958 10958 10956 10956 10954 10952 10950 10948 10947 10945 10943 10942 10940 10938 10938 10936 10933 10930
11018 11018 11018 11016 11016 11015 11014 11014 11013 11012 11012 11012 11011 11010 11010 11009 11008 11008 11006 11005 11004 11002 11001 11000 10998 10998 10996 10996 10994 10994 10994 10992 10992 10990 10988 10987 10986 10984 10982 10981 10980 10978 10977 10976 10974 10974 10973 10972 10970 10968 10966 10964 10963 10962 10960 10958 10958 10957 10956 10955 10954 10952 10950 10948 10947 10945 10943 10942 10940 10939 10938 10936 10933 10930
11018 11017 11016 11016 11015 11014 11014 11013 11012 11012 11011 11010 11010 11010 11008 11008 11006 11006 11004 11004 11002 11001 11000 10998 10997 10996 10995 10994 10993 10992 10992 10991 10990 10988 10987 10986 10985 10984 10982 10980 10979 10978 10976 10975 10974 10974 10972 10971 10970 10968 10966 10964 10962 10960 10959 10958 10957 10956 10955 10954 10952 10951 10950 10948 10947 10945 10943 10942 10940 10940 10937 10935 10932 10930
11016 11016 11016 11014 11014 11014 11013 11012 11012 11011 11010 11009 11008 11008 11007 11006 11005 11004 11002 11002 11000 10999 10998 10996 10995 10994 10993 10992 10992 10991 10990 10989 10988 10986 10986 10984 10984 10984 10982 10980 10978 10977 10976 10974 10973 10972 10971 10970 10968 10967 10966 10964 10962 10960 10958 10956 10956 10955 10954 10953 10952 10950 10949 10948 10946 10945 10943 10942 10940 10939 10936 10934 10932 10930
11015 11015 11014 11014 11014 11013 11012 11012 11010 11010 11008 11008 11007 11006 11005 11004 11003 11002 11001 11000 10998 10997 10996 10994 10993 10992 10992 10992 10990 10990 10988 10987 10986 10985 10984 10983 10982 10982 10982 10980 10978 10977 10976 10974 10972 10970 10970 10968 10967 10966 10964 10962 10960 10958 10956 10956 10954 10954 10953 10952 10951 10950 10948 10947 10946 10944 10942 10941 10940 10938 10936 10933 10931 10928
11014 11014 11013 11013 11012 11012 11011 11010 11010 11008 11008 11006 11006 11004 11004 11002 11001 11000 10999 10998 10996 10995 10994 10992 10992 10991 10991 10990 10989 10988 10986 10986 10984 10984 10983 10982 10980 10980 10980 10979 10978 10976 10974 10973 10971 10970 10968 10967 10966 10965 10963 10961 10959 10957 10955 10954 10953 10952 10952 10950 10949 10948 10947 10946 10944 10943 10942 10940 10938 10936 10934 10932 10930 10928
11012 11012 11012 11012 11011 11010 11010 11010 11008 11008 11006 11005 11004 11003 11002 11000 11000 10998 10997 10996 10994 10993 10992 10990 10990 10990 10990 10989 10988 10986 10985 10984 10983 10982 10982 10980 10979 10978 10976 10976 10976 10974 10973 10972 10970 10968 10967 10966 10964 10964 10962 10960 10958 10956 10954 10953 10952 10950 10950 10948 10948 10946 10946 10944 10944 10942 10940 10938 10936 10935 10933 10931 10930 10928
11010 11010 11010 11010 11010 11009 11008 11008 11007 11006 11004 11004 11002 11002 11000 10999 10998 10996 10996 10994 10992 10991 10990 10989 10988 10988 10987 10986 10986 10985 10984 10982 10981 10980 10980 10978 10977 10976 10974 10973 10973 10972 10972 10970 10969 10967 10966 10964 10963 10962 10960 10958 10956 10954 10952 10951 10950 10948 10948 10946 10946 10944 10944 10943 10942 10940 10939 10937 10935 10934 10932 10930 10928 10927
11008 11008 11008 11008 11008 11008 11007 11006 11006 11004 11003 11002 11000 11000 10998 10997 10996 10994 10994 10992 10990 10989 10988 10988 10987 10986 10984 10984 10984 10982 10981 10980 10978 10978 10976 10976 10974 10973 10972 10970 10970 10970 10970 10969 10968 10966 10964 10962 10961 10960 10958 10956 10954 10952 10950 10949 10948 10947 10946 10945 10944 10943 10942 10942 10940 10940 10938 10936 10934 10932 10930 10929 10928 10926
11006 11007 11007 11006 11006 11006 11006 11005 11004 11002 11001 11000 10999 10998 10996 10995 10994 10993 10992 10990 10988 10987 10986 10986 10986 10984 10982 10982 10980 10979 10978 10977 10976 10974 10973 10972 10971 10970 10969 10968 10968 10968 10967 10966 10966 10964 10962 10960 10958 10957 10956 10954 10952 10950 10948 10947 10946 10945 10944 10944 10942 10942 10941 10940 10939 10938 10936 10935 10934 10932 10930 10928 10926 10924
11006 11006 11005 11005 11005 11004 11004 11003 11002 11001 11000 10998 10998 10996 10995 10994 10992 10991 10990 10988 10986 10986 10984 10984 10983 10982 10980 10979 10978 10976 10974 10974 10973 10972 10970 10968 10968 10968 10966 10965 10964 10964 10964 10963 10962 10961 10960 10958 10956 10954 10953 10952 10950 10948 10946 10944 10944 10944 10943 10942 10942 10940 10940 10938 10938 10936 10935 10934 10932 10930 10928 10926 10924 10922
11004 11004 11004 11004 11004 11003 11002 11002 11000 11000 10998 10998 10996 10995 10994 10992 10990 10990 10988 10986 10984 10984 10983 10982 10980 10980 10978 10976 10974 10973 10972 10971 10970 10969 10968 10966 10964 10964 10962 10962 10960 10960 10960 10959 10958 10958 10957 10956 10954 10952 10950 10950 10948 10946 10944 10942 10942 10942 10941 10940 10940 10938 10938 10936 10936 10934 10933 10932 10930 10929 10928 10926 10923 10921
11002 11002 11002 11002 11002 11001 11000 11000 10998 10998 10996 10996 10995 10994 10992 10990 10989 10988 10986 10984 10982 10982 10980 10979 10978 10976 10975 10973 10972 10970 10968 10968 10966 10966 10965 10963 10962 10960 10959 10958 10957 10956 10956 10955 10954 10954 10954 10952 10951 10950 10948 10948 10946 10944 10942 10942 10940 10940 10940 10938 10938 10936 10936 10934 10933 10932 10930 10930 10928 10927 10926 10924 10922 10920
11001 11000 11000 11000 11000 10999 10998 10998 10996 10996 10994 10994 10994 10992 10990 10988 10987 10986 10984 10982 10980 10979 10978 10976 10974 10974 10972 10970 10968 10968 10966 10964 10964 10963 10962 10961 10958 10957 10956 10954 10954 10953 10952 10952 10950 10950 10950 10950 10948 10948 10946 10946 10945 10943 10942 10940 10940 10938 10938 10936 10936 10934 10933 10932 10931 10930 10928 10927 10926 10925 10924 10922 10921 10918
11000 10999 10998 10998 10997 10996 10996 10996 10994 10994 10992 10992 10992 10990 10988 10986 10985 10984 10982 10980 10978 10976 10975 10974 10972 10970 10969 10968 10966 10965 10964 10962 10960 10960 10960 10958 10956 10954 10953 10952 10950 10950 10949 10948 10948 10947 10946 10946 10946 10946 10945 10944 10944 10942 10940 10940 10938 10937 10936 10934 10933 10932 10930 10930 10928 10927 10926 10924 10923 10922 10921 10920 10919 10918
10998 10998 10997 10996 10996 10994 10994 10993 10992 10992 10990 10990 10990 10988 10986 10984 10983 10982 10979 10978 10976 10974 10972 10970 10969 10968 10967 10965 10964 10962 10961 10960 10958 10958 10956 10956 10954 10952 10950 10948 10947 10946 10946 10945 10944 10944 10944 10944 10944 10944 10943 10942 10942 10940 10939 10938 10936 10935 10934 10932 10931 10930 10928 10928 10926 10924 10923 10922 10920 10919 10918 10918 10916 10915
10995 10995 10995 10994 10994 10992 10991 10990 10990 10989 10988 10988 10986 10986 10984 10982 10981 10980 10977 10975 10973 10971 10970 10968 10966 10966 10964 10963 10962 10960 10959 10957 10956 10955 10954 10952 10951 10949 10948 10946 10944 10944 10942 10942 10942 10941 10940 10940 10940 10940 10940 10940 10938 10938 10936 10936 10934 10932 10931 10930 10928 10927 10926 10925 10924 10922 10920 10919 10918 10916 10915 10914 10913 10912
10992 10992 10992 10992 10991 10990 10989 10988 10988 10987 10986 10986 10984 10983 10982 10980 10979 10978 10976 10973 10970 10968 10966 10965 10964 10962 10962 10960 10959 10958 10956 10954 10953 10952 10951 10950 10948 10946 10946 10944 10942 10940 10940 10938 10938 10938 10938 10937 10937 10936 10936 10936 10936 10935 10934 10932 10931 10930 10928 10927 10926 10925 10924 10922 10920 10919 10918 10916 10915 10914 10912 10911 10910 10908
10990 10989 10989 10989 10988 10988 10986 10986 10986 10984 10984 10983 10982 10980 10979 10978 10976 10975 10973 10971 10969 10966 10964 10962 10961 10960 10959 10958 10956 10954 10954 10952 10950 10949 10948 10947 10946 10944 10942 10941 10939 10938 10936 10935 10934 10934 10934 10934 10934 10933 10933 10932 10932 10932 10930 10929 10928 10927 10926 10924 10924 10922 10921 10920 10918 10916 10915 10914 10912 10912 10910 10908 10906 10905
10985 10985 10986 10986 10985 10984 10984 10983 10982 10982 10981 10980 10979 10977 10976 10974 10973 10972 10970 10969 10967 10964 10962 10960 10958 10957 10956 10954 10952 10951 10950 10949 10948 10946 10946 10944 10943 10942 10940 10938 10936 10934 10933 10932 10930 10930 10930 10930 10930 10930 10930 10930 10929 10928 10928 10926 10925 10924 10923 10922 10921 10920 10918 10917 10916 10914 10912 10911 10910 10908 10907 10906 10904 10902
10981 10981 10981 10982 10981 10981 10980 10980 10980 10978 10978 10977 10976 10974 10973 10972 10970 10968 10966 10966 10964 10962 10960 10958 10956 10954 10952 10950 10948 10948 10946 10946 10944 10944 10943 10942 10941 10940 10938 10936 10934 10932 10930 10928 10928 10926 10926 10926 10926 10927 10926 10926 10926 10925 10924 10923 10922 10921 10920 10919 10918 10916 10916 10914 10912 10910 10909 10908 10906 10905 10904 10902 10900 10898
10978 10978 10978 10978 10976 10976 10976 10976 10976 10975 10974 10974 10972 10970 10970 10968 10966 10964 10963 10962 10960 10959 10958 10956 10953 10951 10949 10947 10945 10944 10942 10942 10940 10940 10940 10938 10938 10937 10935 10933 10930 10928 10926 10926 10924 10923 10922 10922 10923 10924 10924 10924 10923 10922 10922 10921 10920 10918 10917 10916 10914 10913 10912 10910 10909 10908 10906 10904 10903 10902 10900 10898 10896 10894
10976 10976 10975 10974 10972 10971 10970 10972 10972 10971 10970 10970 10968 10967 10966 10964 10962 10960 10959 10958 10957 10955 10954 10952 10950 10948 10946 10944 10942 10940 10939 10938 10936 10936 10935 10935 10934 10934 10932 10930 10927 10925 10923 10922 10920 10920 10920 10919 10919 10920 10920 10920 10920 10920 10920 10920 10918 10916 10915 10913 10912 10910 10908 10906 10905 10904 10902 10901 10900 10898 10896 10894 10891 10888
10972 10972 10971 10970 10968 10966 10966 10967 10967 10966 10966 10966 10965 10964 10962 10960 10958 10956 10954 10954 10952 10951 10950 10948 10946 10944 10943 10940 10938 10937 10936 10934 10933 10932 10931 10931 10930 10930 10930 10927 10923 10920 10918 10916 10916 10916 10916 10916 10916 10916 10916 10916 10916 10916 10916 10916 10916 10914 10912 10910 10909 10907 10906 10904 10902 10900 10898 10896 10894 10893 10891 10888 10886 10884
10968 10968 10967 10966 10964 10964 10964 10964 10964 10962 10962 10962 10960 10960 10958 10956 10954 10952 10950 10950 10948 10947 10946 10944 10942 10940 10938 10936 10935 10934 10933 10932 10930 10929 10928 10927 10926 10926 10926 10923 10919 10914 10912 10910 10910 10911 10912 10912 10912 10912 10912 10912 10912 10912 10912 10912 10912 10911 10910 10908 10906 10904 10902 10900 10898 10896 10894 10892 10890 10888 10886 10884 10881 10878
10964 10963 10962 10962 10962 10960 10960 10960 10960 10959 10958 10958 10956 10956 10954 10952 10950 10948 10946 10946 10944 10942 10940 10938 10937 10936 10934 10932 10932 10930 10929 10928 10928 10926 10924 10923 10922 10922 10921 10918 10914 10909 10906 10904 10905 10906 10907 10908 10908 10908 10908 10908 10908 10908 10908 10908 10907 10906 10906 10904 10903 10902 10900 10898 10896 10894 10891 10889 10887 10884 10882 10879 10876 10874
10958 10957 10957 10958 10958 10958 10957 10956 10956 10955 10954 10954 10952 10952 10950 10949 10946 10944 10943 10942 10940 10938 10936 10935 10934 10932 10931 10929 10927 10926 10924 10924 10922 10920 10918 10916 10916 10915 10914 10912 10908 10904 10902 10902 10903 10903 10903 10904 10904 10904 10903 10904 10904 10904 10904 10904 10903 10902 10902 10900 10900 10898 10896 10894 10892 10890 10888 10886 10884 10882 10879 10876 10874 10871
10952 10951 10950 10952 10953 10954 10953 10952 10952 10950 10950 10948 10948 10948 10947 10945 10943 10941 10939 10938 10936 10935 10934 10932 10930 10929 10928 10926 10925 10923 10922 10920 10918 10916 10912 10910 10909 10908 10906 10904 10902 10900 10898 10900 10900 10900 10899 10900 10900 10900 10898 10898 10900 10900 10900 10900 10899 10898 10897 10896 10894 10894 10892 10891 10889 10887 10884 10882 10880 10878 10875 10872 10870 10868
10946 10945 10945 10946 10948 10948 10948 10948 10947 10946 10944 10944 10943 10942 10942 10940 10939 10937 10934 10932 10932 10931 10930 10930 10928 10926 10925 10924 10922 10921 10920 10917 10915 10912 10909 10906 10904 10902 10900 10898 10896 10896 10896 10896 10896 10895 10894 10895 10896 10896 10894 10894 10894 10895 10896 10894 10894 10893 10892 10891 10890 10888 10887 10886 10884 10882 10880 10878 10876 10873 10870 10868 10864 10862
10941 10940 10940 10941 10942 10943 10943 10942 10942 10941 10940 10938 10938 10937 10936 10935 10934 10932 10930 10927 10926 10927 10927 10926 10924 10922 10922 10920 10920 10918 10917 10914 10912 10910 10908 10905 10902 10899 10897 10895 10893 10892 10892 10892 10892 10891 10890 10891 10892 10891 10890 10890 10890 10890 10890 10890 10888 10888 10886 10886 10884 10883 10882 10880 10878 10876 10874 10872 10870 10868 10865 10862 10859 10856
10938 10936 10936 10937 10938 10938 10937 10936 10936 10936 10935 10934 10933 10932 10930 10928 10928 10926 10924 10923 10922 10923 10922 10920 10918 10918 10918 10917 10916 10916 10914 10912 10910 10907 10904 10902 10900 10897 10894 10892 10890 10888 10888 10888 10887 10886 10887 10888 10888 10887 10886 10886 10886 10884 10884 10884 10884 10882 10880 10880 10878 10877 10875 10873 10871 10870 10867 10865 10863 10860 10858 10856 10853 10850
10932 10932 10932 10932 10932 10932 10931 10930 10930 10930 10930 10928 10928 10926 10925 10923 10922 10921 10920 10918 10918 10918 10916 10915 10914 10914 10913 10912 10912 10912 10910 10908 10906 10904 10901 10898 10896 10894 10891 10888 10886 10885 10884 10884 10884 10884 10884 10886 10886 10884 10883 10882 10880 10878 10878 10878 10878 10876 10874 10873 10871 10870 10868 10867 10865 10863 10860 10858 10856 10854 10852 10849 10846 10844
10927 10926 10926 10926 10926 10925 10924 10924 10923 10924 10923 10922 10922 10922 10920 10918 10917 10916 10914 10914 10913 10912 10912 10910 10909 10908 10908 10908 10907 10906 10906 10904 10901 10899 10897 10895 10893 10890 10888 10886 10885 10884 10882 10882 10882 10882 10884 10884 10882 10880 10878 10877 10875 10873 10872 10870 10870 10869 10868 10866 10864 10862 10860 10859 10858 10855 10853 10851 10849 10846 10844 10841 10838 10835
10920 10920 10920 10920 10920 10918 10916 10916 10915 10916 10916 10916 10916 10916 10915 10914 10912 10910 10910 10909 10908 10906 10906 10906 10904 10902 10902 10902 10900 10900 10900 10898 10894 10892 10891 10889 10888 10888 10886 10884 10884 10881 10880 10880 10881 10880 10880 10878 10876 10874 10873 10871 10869 10867 10866 10864 10862 10860 10858 10857 10856 10854 10852 10851 10848 10846 10844 10842 10840 10838 10836 10834 10830 10827
10914 10914 10914 10914 10912 10910 10908 10908 10908 10908 10910 10910 10910 10909 10908 10908 10906 10905 10904 10904 10902 10900 10900 10900 10898 10897 10896 10895 10894 10894 10894 10890 10886 10884 10884 10884 10884 10884 10883 10882 10880 10878 10876 10876 10878 10875 10872 10871 10870 10868 10866 10866 10863 10860 10858 10857 10856 10854 10851 10850 10848 10846 10844 10842 10840 10838 10836 10833 10832 10830 10827 10824 10822 10818
10906 10906 10906 10908 10906 10902 10901 10902 10902 10902 10903 10904 10903 10902 10902 10900 10899 10898 10898 10896 10894 10893 10893 10893 10892 10891 10890 10890 10890 10890 10888 10884 10878 10876 10878 10880 10881 10882 10882 10880 10878 10876 10872 10872 10870 10868 10865 10864 10863 10861 10860 10859 10856 10854 10852 10850 10849 10847 10845 10842 10840 10838 10836 10834 10832 10828 10826 10823 10822 10820 10817 10814 10810 10808
10898 10898 10898 10900 10900 10898 10896 10896 10896 10896 10896 10896 10896 10896 10895 10894 10892 10890 10890 10889 10888 10886 10886 10886 10886 10884 10884 10884 10884 10884 10882 10877 10872 10872 10874 10876 10878 10883 10883 10877 10872 10869 10866 10864 10862 10860 10859 10858 10856 10854 10854 10852 10850 10848 10846 10843 10841 10840 10838 10836 10834 10832 10829 10826 10823 10820 10817 10814 10812 10810 10808 10804 10800 10796